This is the latest recevied weather packets stored in our database for station/object NK2J. If no packets are shown the sender has not sent any weather packets the latest 10 day(s).
| Time | Temp. | Humidity | Pressure | Rain* | Wind** | Luminosity | Snow |
|---|---|---|---|---|---|---|---|
| 1777223398 | 20.56° C | 34% | 1013.2 hPa | 0 mm | - | 629 W/m² | - |
| 1777223096 | 20.56° C | 34% | 1013.2 hPa | 0 mm | - | 621 W/m² | - |
| 1777222792 | 20.56° C | 34% | 1013.1 hPa | 0 mm | - | 610 W/m² | - |
| 1777222491 | 20.56° C | 34% | 1013.1 hPa | 0 mm | - | 597 W/m² | - |
| 1777222187 | 20.56° C | 33% | 1013.2 hPa | 0 mm | - | 587 W/m² | - |
| 1777221886 | 20.56° C | 33% | 1013.1 hPa | 0 mm | - | 574 W/m² | - |
| 1777221585 | 20.56° C | 34% | 1012.7 hPa | 0 mm | - | 564 W/m² | - |
| 1777221283 | 20.56° C | 37% | 1012.9 hPa | 0 mm | - | 542 W/m² | - |
| 1777220979 | 20.56° C | 35% | 1013 hPa | 0 mm | - | 541 W/m² | - |
| 1777220675 | 20° C | 36% | 1012.7 hPa | 0 mm | - | 523 W/m² | - |
| 1777220372 | 20.56° C | 35% | 1012.9 hPa | 0 mm | - | 515 W/m² | - |
| 1777220071 | 20.56° C | 35% | 1012.5 hPa | 0 mm | - | 503 W/m² | - |
| 1777219768 | 20° C | 37% | 1012.9 hPa | 0 mm | - | 493 W/m² | - |
| 1777219466 | 19.44° C | 37% | 1012.6 hPa | 0 mm | - | 477 W/m² | - |
| 1777219161 | 19.44° C | 37% | 1012.7 hPa | 0 mm | - | 464 W/m² | - |
| 1777218857 | 20° C | 36% | 1012.6 hPa | 0 mm | - | 446 W/m² | - |
| 1777218554 | 20° C | 37% | 1012.3 hPa | 0 mm | - | 431 W/m² | - |
| 1777218249 | 20° C | 38% | 1012.3 hPa | 0 mm | - | 414 W/m² | - |
| 1777217946 | 19.44° C | 38% | 1012.2 hPa | 0 mm | - | 396 W/m² | - |
| 1777217641 | 18.89° C | 38% | 1012.3 hPa | 0 mm | - | 375 W/m² | - |
| 1777217337 | 18.89° C | 39% | 1012.4 hPa | 0 mm | - | 358 W/m² | - |
| 1777217033 | 18.33° C | 40% | 1012.2 hPa | 0 mm | - | 364 W/m² | - |
| 1777216730 | 18.33° C | 40% | 1012.3 hPa | 0 mm | - | 146 W/m² | - |
| 1777216425 | 17.78° C | 40% | 1012.2 hPa | 0 mm | - | 117 W/m² | - |
| 1777216124 | 17.78° C | 41% | 1012 hPa | 0 mm | - | 76 W/m² | - |
* Rain latest hour (hover to see other rain measurements)
** Current wind speed in m/s (hover to see current wind gust speed)